Skip Page Navigation
NASA JPL Caltech
NASA Logo - Jet Propulsion Laboratory + View the NASA Portal
+ Near-Earth Object (NEO) Program
Search JPL
JPL Home Earth Solar System Stars & Galaxies Technology
JPL Solar System Dynamics
BODIES ORBITS EPHEMERIDES TOOLS PHYSICAL DATA DISCOVERY FAQ SITE MAP
JPL Small-Body Database Browser
Search: [ help ]  
6037 (1988 EG)
Classification: Apollo [NEO, PHA]          SPK-ID: 2006037
Ephemeris | Orbit Diagram | Orbital Elements | Physical Parameters | Discovery Circumstances | Close-Approach Data ]

[ hide orbit diagram ]
Orbit Diagram
Note: Make sure you have Java enabled on your browser to see the applet. This applet is provided as a 3D orbit visualization tool. The applet was implemented using 2-body methods, and hence should not be used for determining accurate long-term trajectories (over several years or decades) or planetary encounter circumstances. For accurate long-term ephemerides, please instead use our Horizons system.
Orbit Viewer

Additional Notes: the orbits shown in the applet are color coded. The planets are white lines, and the asteroid/comet is a blue line. The bright white line indicates the portion of the orbit that is above the ecliptic plane, and the darker portion is below the ecliptic plane. Likewise for the asteroid/comet orbit, the light blue indicates the portion above the ecliptic plane, and the dark blue the portion below the ecliptic plane.

Orbit Viewer applet originally written and kindly provided by Osamu Ajiki (AstroArts), and further modified by Ron Baalke (JPL).


Orbital Elements at Epoch 2456400.5 (2013-Apr-18.0) TDB
Reference: JPL 50 (heliocentric ecliptic J2000)
 Element Value Uncertainty (1-sigma)   Units 
e .4996682441386572 6.4092e-08  
a 1.27131127880614 2.3307e-09 AU
q .636077404371405 8.1896e-08 AU
i 3.496983938345492 7.9338e-06 deg
node 182.6017586672052 5.6535e-05 deg
peri 241.9627620474428 5.7229e-05 deg
M 241.6147144983704 8.0292e-06 deg
tp 2456572.675559093235
(2013-Oct-07.17555909)
1.213e-05 JED
period 523.571835899415
1.43
1.4398e-06
3.942e-09
d
yr
n .6875847311029938 1.8908e-09 deg/d
Q 1.906545153240874 3.4953e-09 AU
  Orbit Determination Parameters
   # obs. used (total)      371  
   # delay obs. used      4  
   # Doppler obs. used      4  
   data-arc span      8456 days (23.15 yr)  
   first obs. used      1988-03-12  
   last obs. used      2011-05-07  
   planetary ephem.      DE405  
   SB-pert. ephem.      SB405-CPV-2  
   condition code      0  
   fit RMS      .56875  
   data source      ORB  
   producer      Otto Matic  
   solution date      2013-Apr-29 15:37:43  

Additional Information
 Earth MOID = .0242224 AU 
 T_jup = 4.948 
[ show covariance matrix ]

Ephemeris | Orbit Diagram | Orbital Elements | Physical Parameters | Discovery Circumstances | Close-Approach Data ]

Physical Parameter Table
Parameter Symbol Value Units Sigma Reference Notes
absolute magnitude H 18.7 mag n/a PDS3 (MPC 23772)  
rotation period rot_per 2.760 h n/a Asteroid Lightcurve DataBase (Rev. 2013-May-01) Result based on less than full coverage, so that the period may be wrong by 30 percent or so.
Published Reference List:
[Pravec, P.; Wolf, M.; Sarounova, L. (1998) http://www.asu.cas.cz/~ppravec/neo.htm]

6037 (1988 EG)          Discovered 1988-Mar-12 by Alu, J. at Palomar (675)
Reference: DISCOVERY.DBLast Updated: 2003-08-29

[ show close-approach data ]
Ephemeris | Orbit Diagram | Orbital Elements | Physical Parameters | Discovery Circumstances | Close-Approach Data ]
ABOUT SSD CREDITS/AWARDS PRIVACY/COPYRIGHT GLOSSARY LINKS
FirstGov 2013-May-21 22:02 UT
(server date/time)  
NASA Home Page
Site Manager:   Donald K. Yeomans
Webmaster  Alan B. Chamberlin